Terminal Aerodrome Forecast
Issued by NWS Tampa Bay Area, FL

Home | Current Version | Previous Version | Text Only | Print | Product List | Glossary On
Versions: 1 2 3 4 5 6 7 8 9 10 11 12 13 14 15 16 17 18
000
FTUS42 KTBW 300900 AAB
TAFSRQ
TAF AMD
KSRQ 300907Z 3009/3106 34006KT P6SM VCTS SCT020CB SCT250
      TEMPO 3009/3011 4SM SHRA BKN020
     FM301100 36005KT P6SM FEW020 SCT250
     FM301400 VRB05KT P6SM SCT025 SCT250
     FM301600 28007KT P6SM SCT035 SCT250
     FM301800 28010KT P6SM SCT040 SCT250
     FM302300 31006KT P6SM FEW040 SCT250
     FM310300 VRB03KT P6SM SCT250=

USA.gov is the U.S. government's official web portal to all federal, state and local government web resources and services.